Flag for Australia Weather past 2 weeks in Port Hedland, Western Australia, Australia

Now
82 °F

Clear.


Feels Like: 86 °F
Forecast: 80 / 88 °F
Wind: 10 mph from Northwest

Location: Port Hedland Pardoo

Current Time: Jan 31, 2015 at 8:11:30 PM

Latest Report: Jan 31, 2015 at 7:30 PM


Visibility: N/A

Pressure: 29.74 "Hg

Humidity: 66%

Dew point: 70 °F

Location of Port HedlandLocation

Historic Weather in Port Hedland — Graph

°F

Port Hedland temperature yesterday

Maximum temperature yesterday: 93 °F (at 11:00 AM)
Minimum temperature yesterday: 77 °F (at 12:00 AM)
Average temperature yesterday: 85 °F

Past Weeks' High & Low Weather Summary

 TemperatureHumidityPressure
High109 °F (Jan 23, 10:00 AM)94% (Jan 25, 8:30 AM)29.95 "Hg (Jan 25, 8:30 AM)
Low73 °F (Jan 29, 5:00 AM)19% (Jan 23, 10:00 AM)29.53 "Hg (Jan 23, 2:30 PM)
Average87 °F67%29.72 "Hg
* Reported Jan 16 7:00 PM — Jan 31 7:00 PM, Port Hedland, Weather by CustomWeather, © 2014

Note: Actual official high and low records may vary slightly from our data, if they occured in-between our weather recording intervals... More about our weather records

Advertising

Port Hedland weather history for previous 24 hours

 ConditionsComfort  
Time TempWeatherWind HumidityBarometerVisibility
7:00 PM
Jan 31
84 °FClear.12 mph62%29.74 "HgN/A
6:30 PM84 °FClear.14 mph66%29.74 "HgN/A
6:00 PM86 °FClear.14 mph62%29.74 "HgN/A
5:30 PM88 °FSunny.15 mph55%29.71 "HgN/A
5:00 PM90 °FSunny.16 mph52%29.71 "HgN/A
4:30 PM90 °FSunny.17 mph46%29.71 "HgN/A
4:00 PM90 °FSunny.17 mph49%29.71 "HgN/A
3:00 PM93 °FSunny.17 mph41%29.71 "HgN/A
2:30 PM91 °FSunny.17 mph38%29.71 "HgN/A
2:00 PM93 °FSunny.17 mph41%29.71 "HgN/A
1:00 PM91 °FSunny.15 mph46%29.74 "HgN/A
12:30 PM90 °FSunny.15 mph49%29.77 "HgN/A
12:00 PM91 °FSunny.14 mph46%29.77 "HgN/A
11:00 AM93 °FSunny.12 mph39%29.77 "HgN/A
10:30 AM91 °FSunny.12 mph44%29.77 "HgN/A
10:00 AM90 °FSunny.9 mph49%29.77 "HgN/A
9:30 AM90 °FSunny.9 mph43%29.80 "HgN/A
9:00 AM86 °FSunny.7 mph59%29.80 "HgN/A
8:00 AM84 °FSunny.2 mph62%29.80 "HgN/A
7:30 AM82 °FSunny.3 mph66%29.80 "HgN/A
7:00 AM81 °FSunny.3 mph74%29.80 "HgN/A
6:30 AM79 °FSunny.No wind79%29.77 "HgN/A
6:00 AM79 °FSunny.No wind79%29.77 "HgN/A
5:00 AM81 °FMore clouds than sun.7 mph74%29.77 "HgN/A
4:30 AM79 °FOvercast.8 mph79%29.77 "HgN/A
4:00 AM81 °FPartly cloudy.6 mph74%29.74 "HgN/A
3:30 AM79 °FPartly cloudy.5 mph79%29.74 "HgN/A
3:00 AM79 °FClear.7 mph79%29.74 "HgN/A
2:30 AM79 °FPassing clouds.8 mph79%29.74 "HgN/A
2:00 AM81 °FPassing clouds.7 mph74%29.74 "HgN/A
1:30 AM81 °FClear.9 mph70%29.74 "HgN/A
1:00 AM81 °FPassing clouds.12 mph70%29.74 "HgN/A
12:30 AM81 °FPassing clouds.12 mph74%29.74 "HgN/A
12:00 AM81 °FClear.13 mph74%29.74 "HgN/A
11:30 PM
Jan 30
82 °FClear.14 mph70%29.74 "HgN/A
11:00 PM82 °FClear.15 mph66%29.74 "HgN/A
10:30 PM82 °FClear.15 mph70%29.74 "HgN/A
10:00 PM82 °FClear.16 mph70%29.74 "HgN/A
9:30 PM82 °FClear.14 mph70%29.74 "HgN/A
9:00 PM82 °FPassing clouds.17 mph70%29.71 "HgN/A
8:30 PM82 °FClear.14 mph70%29.71 "HgN/A
8:00 PM82 °FClear.15 mph70%29.71 "HgN/A
Weather by CustomWeather, © 2014

See weather overviewHow to use our weather pages